Weather History for KDAW - March, 2014

Change the Weather History Date:

Wednesday, March 19, 2014

  Actual Average (KSFM) Record (KSFM)
Temperature  
Mean Temperature 27 °F -  
Max Temperature 37 °F 38 °F 75 °F (2012)
Min Temperature 17 °F 21 °F 3 °F (1997)
Degree Days  
Heating Degree Days 38    
Moisture  
Dew Point 21 °F    
Average Humidity 71    
Maximum Humidity 85    
Minimum Humidity 48    
Precipitation  
Precipitation 0.00 in - - ()
Sea Level Pressure  
Sea Level Pressure 30.23 in    
Wind  
Wind Speed 5 mph (East)    
Max Wind Speed 10 mph    
Max Gust Speed 17 mph    
Visibility 9 miles    
Events Snow    
Averages and records for this station are not official NWS values.
T = Trace of Precipitation, MM = Missing Value Source: NWS Daily Summary

Daily Weather History Graph

Daily Weather History Graph

Search for Another Location

Airport or City:

Trip Planner

Search our weather history database for the weather conditions in past years. The results will help you decide how hot, cold, wet, or windy it might be!

Date:

Astronomy

Mar. 19, 2014 Rise Set
Actual Time 6:48 AM EDT 6:54 PM EDT
Civil Twilight 6:20 AM EDT 7:23 PM EDT
Nautical Twilight 5:47 AM EDT 7:56 PM EDT
Astronomical Twilight 5:13 AM EDT 8:30 PM EDT
Moon 10:16 PM EDT (3/19) 8:07 AM EDT (3/19)
Length of Visible Light 13h 02m
Length of Day
12h 06m
Waning Gibbous, 91% of the Moon is Illuminated
Mar 19
Waning Gibbous
Mar 23
Last Quarter
Mar 30
New
Apr 7
First Quarter
Apr 15
Full

Hourly Weather History & Observations

Time (EDT) Temp. Windchill Dew Point Humidity Pressure Visibility Wind Dir Wind Speed Gust Speed Precip Events Conditions
12:51 AM 21.9 °F 17.2 °F 15.1 °F 75% 30.33 in 10.0 mi NW 3.5 mph - N/A   Clear
1:51 AM 19.0 °F 11.1 °F 15.1 °F 85% 30.34 in 10.0 mi NW 5.8 mph - N/A   Clear
2:51 AM 19.9 °F 14.9 °F 15.1 °F 81% 30.32 in 10.0 mi NW 3.5 mph - N/A   Clear
3:51 AM 18.0 °F 11.1 °F 14.0 °F 84% 30.32 in 10.0 mi NW 4.6 mph - N/A   Clear
4:51 AM 19.0 °F 12.3 °F 15.1 °F 85% 30.33 in 10.0 mi NW 4.6 mph - N/A   Clear
5:51 AM 18.0 °F 12.7 °F 12.9 °F 81% 30.34 in 10.0 mi NNW 3.5 mph - N/A   Clear
6:51 AM 17.1 °F 8.7 °F 12.9 °F 84% 30.36 in 10.0 mi NW 5.8 mph - N/A   Clear
7:51 AM 19.0 °F 11.1 °F 14.0 °F 81% 30.38 in 10.0 mi NW 5.8 mph - N/A   Clear
8:51 AM 26.1 °F - 17.1 °F 69% 30.38 in 10.0 mi Calm Calm - N/A   Clear
9:51 AM 30.9 °F 27.5 °F 19.9 °F 64% 30.38 in 10.0 mi NE 3.5 mph - N/A   Clear
10:51 AM 34.0 °F 27.2 °F 19.9 °F 56% 30.35 in 10.0 mi ESE 8.1 mph - N/A   Clear
11:51 AM 37.0 °F 31.0 °F 19.0 °F 48% 30.33 in 10.0 mi SSE 8.1 mph - N/A   Clear
12:51 PM 37.0 °F 29.8 °F 21.0 °F 52% 30.32 in 10.0 mi SE 10.4 mph - N/A   Clear
1:51 PM 37.0 °F 31.0 °F 21.9 °F 54% 30.28 in 10.0 mi SE 8.1 mph - N/A   Overcast
2:51 PM 37.0 °F 31.6 °F 23.0 °F 57% 30.26 in 10.0 mi Variable 6.9 mph - N/A   Overcast
3:51 PM 37.0 °F 31.0 °F 23.0 °F 57% 30.24 in 10.0 mi SSE 8.1 mph 17.3 mph N/A   Overcast
4:51 PM 36.0 °F 28.5 °F 24.1 °F 62% 30.20 in 10.0 mi SE 10.4 mph - N/A   Overcast
5:51 PM 36.0 °F 29.6 °F 25.0 °F 64% 30.18 in 10.0 mi SE 8.1 mph 17.3 mph N/A   Overcast
6:21 PM 35.1 °F 31.0 °F 25.0 °F 67% 30.20 in 10.0 mi SSE 4.6 mph - N/A   Overcast
6:51 PM 35.1 °F 32.2 °F 25.0 °F 67% 30.19 in 10.0 mi ESE 3.5 mph - N/A   Overcast
7:00 PM 35.1 °F 30.1 °F 25.0 °F 67% 30.17 in 10.0 mi ESE 5.8 mph - N/A   Overcast
7:51 PM 34.0 °F 28.0 °F 25.0 °F 70% 30.14 in 10.0 mi ESE 6.9 mph - N/A   Overcast
8:51 PM 34.0 °F - 25.0 °F 70% 30.16 in 10.0 mi Calm Calm - N/A   Overcast
9:12 PM 34.0 °F 29.8 °F 25.0 °F 70% 30.14 in 10.0 mi Variable 4.6 mph - N/A   Overcast
9:51 PM 34.0 °F 29.8 °F 26.1 °F 73% 30.10 in 10.0 mi East 4.6 mph - N/A   Overcast
10:02 PM 34.0 °F 28.0 °F 26.1 °F 73% 30.08 in 10.0 mi East 6.9 mph - N/A   Overcast
10:51 PM 34.0 °F 29.8 °F 26.1 °F 73% 30.10 in 10.0 mi East 4.6 mph - N/A   Overcast
10:59 PM 34.0 °F 29.8 °F 27.0 °F 75% 30.09 in 10.0 mi ESE 4.6 mph - 0.00 in Snow Light Snow
11:34 PM 34.0 °F 28.8 °F 27.0 °F 75% 30.04 in 2.5 mi East 5.8 mph - 0.00 in Snow Light Snow
11:42 PM 33.1 °F 27.7 °F 28.0 °F 82% 30.03 in 1.5 mi East 5.8 mph - 0.00 in Snow Light Snow
11:51 PM 32.0 °F 26.4 °F 28.0 °F 85% 30.02 in 2.0 mi East 5.8 mph - 0.00 in Snow Light Snow